Location: Cerda�ola
(41.4919°N, 2.1403°E)
Time: 18:44:12
(UTC+00:00)

Lacrosse 4 Rocket - Pass Details

Date: 20 August 2020
Orbit: 544 x 615 km, 68.0° (Epoch: 30 September)

Event Time Altitude Azimuth Distance (km) Brightness Sun altitude
Rises 20:12:53 0° 201° (SSW) 2,803 4.8 -16.1°
Reaches altitude 10° 20:15:08 10° 199° (SSW) 1,895 3.9 -16.4°
Maximum altitude 20:19:22 70° 115° (ESE) 612 1.3 -17.1°
Drops below altitude 10° 20:23:31 10° 33° (NNE) 1,865 4.0 -17.7°
Sets 20:25:43 0° 31° (NNE) 2,754 5.0 -18.1°
